Location: Lac Lasalle
(46.0398°N, 74.1576°W)
Time: 01:02:32
(UTC-05:00)

PCSat - Visible Passes

Search period start: 11 December 2019 00:00
Search period end: 21 December 2019 00:00
Orbit: 785 x 795 km, 67.1° (Epoch: 10 December)

Date Brightness Start Highest point End Pass type
(mag) Time Alt. Az. Time Alt. Az. Time Alt. Az.
11 Dec 11.8 16:43:57 10° NW 16:46:23 13° NNW 16:48:50 10° N visible
17 Dec 11.9 18:53:25 10° N 18:53:34 10° N 18:53:34 10° N visible
18 Dec 11.8 18:22:53 10° N 18:23:30 11° N 18:23:30 11° N visible
19 Dec 11.7 17:52:59 10° NNE 17:53:25 10° NNE 17:53:27 10° NNE visible
19 Dec 12.1 19:33:54 10° NNW 19:34:10 11° NNW 19:34:10 11° NNW visible
20 Dec 11.7 19:03:03 10° NNW 19:04:10 15° N 19:04:10 15° N visible
